Oakland, CA

7:16 PM PDT on June 19, 2018 (GMT -0700)
Metro Oakland International

Weather History for KOAK - October, 2017

Change the Weather History Date:

Tuesday, October 31, 2017

  Actual Average Record
Temperature  
Mean Temperature 56 °F 58 °F  
Max Temperature 64 °F 67 °F 87 °F (1966)
Min Temperature 48 °F 49 °F 40 °F (2002)
Degree Days  
Heating Degree Days 9 7  
Month to date heating degree days 120 151  
Since 1 July heating degree days 193 352  
Cooling Degree Days 0 0  
Month to date cooling degree days 22 12  
Year to date cooling degree days 312 137  
Growing Degree Days 6 (Base 50)    
Moisture  
Dew Point 50 °F    
Average Humidity 80    
Maximum Humidity 100    
Minimum Humidity 60    
Precipitation  
Precipitation 0.00 in 0.07 in 0.32 in (2014)
Month to date precipitation 0.13 1.20  
Year to date precipitation 20.25 14.70  
Sea Level Pressure  
Sea Level Pressure 29.92 in    
Wind  
Wind Speed 6 mph (WNW)    
Max Wind Speed 15 mph    
Max Gust Speed 17 mph    
Visibility 10 miles    
Events      
T = Trace of Precipitation, MM = Missing Value Source: NWS Daily Summary

Daily Weather History Graph

Daily Weather History Graph

Search for Another Location

Airport or City:

Astronomy

Oct. 31, 2017 Rise Set
Actual Time 7:33 AM PDT 6:10 PM PDT
Civil Twilight 7:06 AM PDT 6:38 PM PDT
Nautical Twilight 6:35 AM PDT 7:08 PM PDT
Astronomical Twilight 6:04 AM PDT 7:39 PM PDT
Moon 4:31 PM PDT (10/31) 3:30 AM PDT (10/31)
Length of Visible Light 11h 31m
Length of Day
10h 37m
Waxing Gibbous, 85% of the Moon is Illuminated
Oct 31
Waxing Gibbous
Nov 3
Full
Nov 10
Last Quarter
Nov 18
New
Nov 26
First Quarter

Hourly Weather History & Observations

Time (PDT) Temp. Dew Point Humidity Pressure Visibility Wind Dir Wind Speed Gust Speed Precip Events Conditions
12:05 AM 55.9 °F 48.9 °F 77% 29.88 in 10.0 mi WSW 9.2 mph - N/A   Overcast
12:53 AM 55.9 °F 48.9 °F 77% 29.88 in 10.0 mi West 8.1 mph - N/A   Overcast
1:43 AM 55.9 °F 50.0 °F 80% 29.88 in 10.0 mi West 5.8 mph - N/A   Overcast
1:53 AM 55.0 °F 50.0 °F 83% 29.88 in 10.0 mi Calm Calm - N/A   Overcast
2:00 AM 55.9 °F 50.0 °F 80% 29.88 in 10.0 mi WSW 3.5 mph - N/A   Overcast
2:44 AM 55.9 °F 50.0 °F 80% 29.88 in 10.0 mi WNW 3.5 mph - N/A   Overcast
2:53 AM 55.9 °F 50.0 °F 80% 29.89 in 10.0 mi WNW 3.5 mph - N/A   Overcast
3:29 AM 55.9 °F 48.9 °F 77% 29.89 in 10.0 mi West 3.5 mph - N/A   Overcast
3:53 AM 55.0 °F 50.0 °F 83% 29.89 in 10.0 mi WNW 4.6 mph - N/A   Overcast
4:53 AM 52.0 °F 48.0 °F 86% 29.89 in 10.0 mi Calm Calm - N/A   Partly Cloudy
5:53 AM 50.0 °F 48.0 °F 93% 29.89 in 10.0 mi ENE 3.5 mph - N/A   Partly Cloudy
6:53 AM 48.9 °F 48.0 °F 97% 29.91 in 10.0 mi NNE 3.5 mph - N/A   Partly Cloudy
7:53 AM 48.9 °F 48.0 °F 97% 29.92 in 10.0 mi NE 3.5 mph - N/A   Partly Cloudy
8:53 AM 55.0 °F 51.1 °F 86% 29.95 in 10.0 mi NNE 3.5 mph - N/A   Partly Cloudy
9:53 AM 57.9 °F 51.1 °F 78% 29.96 in 10.0 mi Calm Calm - N/A   Partly Cloudy
10:53 AM 59.0 °F 50.0 °F 72% 29.96 in 10.0 mi South 6.9 mph - N/A   Partly Cloudy
11:53 AM 60.1 °F 50.0 °F 69% 29.96 in 10.0 mi SSW 6.9 mph - N/A   Partly Cloudy
12:53 PM 61.0 °F 48.9 °F 64% 29.94 in 10.0 mi SW 6.9 mph - N/A   Clear
1:53 PM 63.0 °F 48.9 °F 60% 29.92 in 10.0 mi SSW 5.8 mph - N/A   Clear
2:53 PM 64.0 °F 50.0 °F 60% 29.91 in 10.0 mi West 8.1 mph - N/A   Clear
3:53 PM 64.0 °F 51.1 °F 63% 29.90 in 10.0 mi WNW 13.8 mph - N/A   Clear
4:53 PM 62.1 °F 52.0 °F 70% 29.90 in 10.0 mi WNW 10.4 mph - N/A   Partly Cloudy
5:53 PM 59.0 °F 51.1 °F 75% 29.91 in 10.0 mi WNW 12.7 mph - N/A   Partly Cloudy
6:53 PM 57.0 °F 52.0 °F 83% 29.92 in 10.0 mi WNW 9.2 mph - N/A   Partly Cloudy
7:53 PM 55.9 °F 51.1 °F 84% 29.94 in 10.0 mi NW 8.1 mph - N/A   Partly Cloudy
8:53 PM 55.9 °F 51.1 °F 84% 29.94 in 10.0 mi WNW 9.2 mph - N/A   Partly Cloudy
9:53 PM 53.1 °F 50.0 °F 89% 29.96 in 10.0 mi NNW 3.5 mph - N/A   Partly Cloudy
10:53 PM 52.0 °F 48.9 °F 89% 29.96 in 10.0 mi Calm Calm - N/A   Clear
11:53 PM 52.0 °F 50.0 °F 93% 29.96 in 10.0 mi NE 3.5 mph - N/A   Clear